FW6120 Weather Reports


Display with metric or nautical units.
time (UTC)temp
F
wind
direction
speed
MPH
gust
MPH
rain 1hr
in
rain 24hr
in
rain mn
in
humidity
%
barometer
mb
20260503215113 90 264 0.0 13.0 0.00 0.00 0.00 30 1009.8
20260503214618 89 292 2.0 13.0 0.00 0.00 0.00 27 1010.1
20260503213801 89 69 4.0 13.0 0.00 0.00 0.00 25 1010.1
20260503213303 90 115 7.0 13.0 0.00 0.00 0.00 29 1010.2
20260503212802 89 218 2.0 13.0 0.00 0.00 0.00 24 1010.1
20260503212301 89 193 6.0 15.0 0.00 0.00 0.00 26 1010.0
20260503211801 89 195 4.0 15.0 0.00 0.00 0.00 25 1010.1
20260503211626 89 223 9.0 14.0 0.00 0.00 0.00 28 1010.2
20260503211112 90 222 10.0 14.0 0.00 0.00 0.00 26 1010.4
20260503210301 89 144 4.0 6.0 0.00 0.00 0.00 28 1010.3
20260503205801 89 208 4.0 13.0 0.00 0.00 0.00 26 1010.2
20260503205304 89 223 1.0 14.0 0.00 0.00 0.00 24 1010.3
20260503204800 89 202 1.0 16.0 0.00 0.00 0.00 27 1010.4
20260503204616 89 153 6.0 16.0 0.00 0.00 0.00 28 1010.4
20260503203802 89 179 6.0 10.0 0.00 0.00 0.00 27 1010.5
20260503203301 89 216 2.0 10.0 0.00 0.00 0.00 25 1010.9
20260503202800 90 214 7.0 8.0 0.00 0.00 0.00 28 1010.8
20260503202608 90 80 2.0 13.0 0.00 0.00 0.00 30 1010.7
20260503201802 89 50 1.0 13.0 0.00 0.00 0.00 25 1010.9
20260503201624 90 154 6.0 8.0 0.00 0.00 0.00 25 1010.9
20260503200801 89 112 1.0 11.0 0.00 0.00 0.00 25 1010.9
20260503200332 89 105 2.0 11.0 0.00 0.00 0.00 24 1010.9
20260503195801 89 168 6.0 8.0 0.00 0.00 0.00 27 1011.0
20260503195304 89 172 3.0 9.0 0.00 0.00 0.00 27 1011.1
20260503195112 89 126 6.0 9.0 0.00 0.00 0.00 30 1011.1
20260503194621 89 53 6.0 11.0 0.00 0.00 0.00 28 1011.3
20260503193803 88 154 2.0 11.0 0.00 0.00 0.00 25 1011.3
20260503193310 88 119 4.0 11.0 0.00 0.00 0.00 26 1011.4
20260503192802 88 124 6.0 11.0 0.00 0.00 0.00 31 1011.2
20260503192306 88 143 7.0 14.0 0.00 0.00 0.00 26 1011.5
20260503191801 88 96 3.0 16.0 0.00 0.00 0.00 25 1011.5
20260503191301 88 129 9.0 15.0 0.00 0.00 0.00 27 1011.5
20260503190802 88 96 9.0 17.0 0.00 0.00 0.00 31 1011.5
20260503190615 88 94 11.0 17.0 0.00 0.00 0.00 29 1011.7
20260503185801 88 82 9.0 14.0 0.00 0.00 0.00 36 1011.6
20260503185301 87 112 4.0 14.0 0.00 0.00 0.00 30 1011.6
20260503184801 86 132 7.0 13.0 0.00 0.00 0.00 29 1011.8
20260503184613 86 223 2.0 13.0 0.00 0.00 0.00 34 1011.6
20260503183803 85 75 5.0 9.0 0.00 0.00 0.00 31 1011.6
20260503183615 85 20 1.0 7.0 0.00 0.00 0.00 39 1011.9
20260503183116 84 278 1.0 6.0 0.00 0.00 0.00 42 1012.0
20260503182304 83 276 2.0 6.0 0.00 0.00 0.00 39 1012.0
20260503181803 83 304 0.0 6.0 0.00 0.00 0.00 39 1012.1
20260503181301 82 309 3.0 6.0 0.00 0.00 0.00 43 1012.0
20260503181116 81 298 3.0 7.0 0.00 0.00 0.00 46 1012.2
20260503180301 80 298 2.0 7.0 0.00 0.00 0.00 43 1012.1
20260503175800 80 323 3.0 7.0 0.00 0.00 0.00 44 1012.3
20260503175301 80 334 3.0 7.0 0.00 0.00 0.00 44 1012.3
20260503174801 79 302 4.0 7.0 0.00 0.00 0.00 44 1012.3
20260503174303 79 311 3.0 8.0 0.00 0.00 0.00 44 1012.3
20260503173801 78 335 2.0 8.0 0.00 0.00 0.00 44 1012.5
20260503173300 78 312 1.0 7.0 0.00 0.00 0.00 45 1012.2
20260503172800 77 292 4.0 7.0 0.00 0.00 0.00 46 1012.4
20260503172616 77 331 4.0 6.0 0.00 0.00 0.00 45 1012.5
20260503171801 77 321 2.0 4.0 0.00 0.00 0.00 47 1012.5
20260503171302 76 311 2.0 4.0 0.00 0.00 0.00 49 1012.5
20260503170801 76 226 1.0 3.0 0.00 0.00 0.00 46 1012.6
20260503170301 75 225 2.0 3.0 0.00 0.00 0.00 49 1012.7
20260503160213 62 191 1.0 3.0 0.00 0.00 0.00 79 1012.8
20260503150801 53 154 0.0 2.0 0.00 0.00 0.00 98 1013.1
20260503150301 52 154 0.0 2.0 0.00 0.00 0.00 98 1013.1
20260503140303 47 154 1.0 2.0 0.00 0.00 0.00 99 1013.0
20260503130801 45 155 0.0 0.0 0.00 0.00 0.00 98 1012.7
20260503130629 45 155 0.0 0.0 0.00 0.00 0.00 98 1012.8
20260503110802 48 155 0.0 0.0 0.00 0.00 0.00 98 1013.2
20260503110314 48 154 0.0 0.0 0.00 0.00 0.00 98 1013.4
20260503090300 51 154 0.0 0.0 0.00 0.00 0.00 96 1013.2
20260503081302 53 154 0.0 0.0 0.00 0.00 0.00 96 1013.3
20260503080801 53 154 0.0 0.0 0.00 0.00 0.00 95 1013.6
20260503080615 53 154 0.0 0.0 0.00 0.00 0.00 95 1013.5
20260503080125 54 154 0.0 0.0 0.00 0.00 0.00 94 1013.4
20260503072801 55 154 0.0 1.0 0.00 0.00 0.00 94 1013.6
20260503072305 56 154 0.0 2.0 0.00 0.00 0.00 94 1013.7
20260503071801 56 154 1.0 2.0 0.00 0.00 0.00 94 1013.7
20260503071305 56 154 0.0 0.0 0.00 0.00 0.00 94 1013.4
20260503070904 56 153 0.0 2.0 0.00 0.00 0.00 94 1013.5
20260503054805 59 120 1.0 1.0 0.00 0.00 0.00 86 1013.9
20260503054301 59 119 0.0 1.0 0.00 0.00 0.00 87 1013.9
20260503053801 59 119 0.0 0.0 0.00 0.00 0.00 86 1013.8
20260503053303 60 119 0.0 0.0 0.00 0.00 0.00 85 1013.8
20260503052804 60 119 0.0 0.0 0.00 0.00 0.00 85 1013.7
20260503052301 60 119 0.0 1.0 0.00 0.00 0.00 84 1013.9
20260503051802 60 119 0.0 1.0 0.00 0.00 0.00 84 1014.0
20260503051617 60 119 0.0 0.0 0.00 0.00 0.00 83 1014.0
20260503051131 61 119 0.0 0.0 0.00 0.00 0.00 82 1014.1
20260503050302 61 119 0.0 1.0 0.00 0.00 0.00 82 1014.0
20260503045801 61 119 0.0 1.0 0.00 0.00 0.00 82 1013.8
20260503045304 62 119 0.0 0.0 0.00 0.00 0.00 81 1014.0
20260503045155 62 119 0.0 0.0 0.00 0.00 0.00 80 1014.0
20260503044301 62 119 0.0 0.0 0.00 0.00 0.00 79 1013.9
20260503043802 62 119 0.0 0.0 0.00 0.00 0.00 79 1014.1
20260503043301 63 119 0.0 0.0 0.00 0.00 0.00 79 1013.9
20260503042805 63 119 0.0 0.0 0.00 0.00 0.00 78 1014.0
20260503042304 64 119 0.0 1.0 0.00 0.00 0.00 76 1013.9
20260503041803 64 119 0.0 4.0 0.00 0.00 0.00 75 1013.7
20260503041301 65 119 0.0 4.0 0.00 0.00 0.00 73 1013.6
20260503040904 65 164 0.0 2.0 0.00 0.00 0.00 71 1013.6
20260503035804 67 220 0.0 2.0 0.00 0.00 0.00 68 1013.6
20260503035301 67 220 0.0 2.0 0.00 0.00 0.00 66 1013.4
20260503034804 67 220 1.0 7.0 0.00 0.00 0.00 65 1013.5
20260503034304 68 220 2.0 7.0 0.00 0.00 0.00 65 1013.0
20260503033807 68 230 2.0 8.0 0.00 0.00 0.00 64 1013.0
20260503033305 69 192 5.0 9.0 0.00 0.00 0.00 64 1013.0
20260503032802 69 217 5.0 10.0 0.00 0.00 0.00 64 1012.8
20260503032304 69 233 5.0 13.0 0.00 0.00 0.00 63 1012.7
20260503031804 70 237 4.0 13.0 0.00 0.00 0.00 63 1012.8
20260503031627 71 220 5.0 13.0 0.00 0.00 0.00 62 1012.4
20260503031130 71 218 2.0 13.0 0.00 0.00 0.00 61 1012.4
20260503030303 71 224 4.0 10.0 0.00 0.00 0.00 61 1012.5
20260503025805 71 214 5.0 10.0 0.00 0.00 0.00 61 1012.3
20260503025301 72 198 2.0 3.0 0.00 0.00 0.00 63 1012.3
20260503024827 73 198 1.0 3.0 0.00 0.00 0.00 62 1012.2
20260503024301 73 211 2.0 3.0 0.00 0.00 0.00 59 1012.2
20260503023804 73 212 2.0 3.0 0.00 0.00 0.00 58 1012.1
20260503023301 74 212 2.0 3.0 0.00 0.00 0.00 58 1012.0
20260503022802 74 212 1.0 3.0 0.00 0.00 0.00 57 1012.0
20260503022310 75 212 1.0 3.0 0.00 0.00 0.00 56 1011.9
20260503021806 75 212 1.0 3.0 0.00 0.00 0.00 56 1012.0
20260503021315 75 212 1.0 3.0 0.00 0.00 0.00 56 1012.0
20260503020802 75 213 1.0 3.0 0.00 0.00 0.00 56 1011.9
20260503020304 76 213 0.0 3.0 0.00 0.00 0.00 55 1011.7
20260503015802 75 213 1.0 2.0 0.00 0.00 0.00 57 1011.7
20260503015301 75 213 2.0 4.0 0.00 0.00 0.00 57 1011.8
20260503014802 74 186 1.0 4.0 0.00 0.00 0.00 57 1011.8
20260503014300 75 229 2.0 6.0 0.00 0.00 0.00 57 1011.7
20260503013803 75 219 1.0 6.0 0.00 0.00 0.00 57 1011.7
20260503013310 75 189 2.0 7.0 0.00 0.00 0.00 58 1011.9
20260503012801 75 229 1.0 7.0 0.00 0.00 0.00 57 1011.9
20260503012300 75 203 2.0 6.0 0.00 0.00 0.00 57 1011.6
20260503011800 75 208 3.0 6.0 0.00 0.00 0.00 57 1011.7
20260503011625 75 225 3.0 6.0 0.00 0.00 0.00 57 1011.9
20260503011108 75 210 2.0 7.0 0.00 0.00 0.00 57 1012.0
20260503010309 75 212 2.0 7.0 0.00 0.00 0.00 56 1011.7
20260503005802 75 208 4.0 7.0 0.00 0.00 0.00 57 1011.8
20260503005301 76 213 3.0 9.0 0.00 0.00 0.00 56 1011.8
20260503004800 76 212 5.0 9.0 0.00 0.00 0.00 56 1011.7
20260503004302 76 231 5.0 8.0 0.00 0.00 0.00 57 1011.6
20260503003800 76 215 3.0 7.0 0.00 0.00 0.00 57 1011.7
20260503003301 76 236 3.0 8.0 0.00 0.00 0.00 57 1011.8
20260503002801 76 243 1.0 8.0 0.00 0.00 0.00 57 1011.9
20260503002300 76 241 5.0 7.0 0.00 0.00 0.00 54 1011.9
20260503001803 77 213 4.0 4.0 0.00 0.00 0.00 53 1011.8
20260503001655 77 235 0.0 4.0 0.00 0.00 0.00 53 1011.7
20260503000805 77 299 2.0 4.0 0.00 0.00 0.00 53 1011.7
20260503000304 77 326 2.0 6.0 0.00 0.00 0.00 54 1011.7
20260503000141 77 216 0.0 6.0 0.00 0.00 0.00 53 1011.7
20260502235304 77 312 4.0 7.0 0.00 0.00 0.00 53 1011.8
20260502234801 76 303 4.0 7.0 0.00 0.00 0.00 55 1012.0
20260502234308 77 303 2.0 7.0 0.00 0.00 0.00 52 1012.0
20260502233801 77 299 3.0 7.0 0.00 0.00 0.00 54 1012.1
20260502233302 77 327 0.0 6.0 0.00 0.00 0.00 53 1012.1
20260502232800 77 12 3.0 7.0 0.00 0.00 0.00 55 1012.0
20260502232300 77 354 5.0 7.0 0.00 0.00 0.00 55 1012.4
20260502231801 77 8 2.0 8.0 0.00 0.00 0.00 58 1012.4
20260502231306 76 328 4.0 8.0 0.00 0.00 0.00 53 1012.4
20260502230915 76 285 0.0 8.0 0.00 0.00 0.00 59 1012.6
20260502230834 76 351 3.0 7.0 0.00 0.00 0.00 55 1012.6
20260502225300 75 322 3.0 6.0 0.00 0.00 0.00 59 1012.6
20260502224804 74 278 2.0 7.0 0.00 0.00 0.00 57 1012.6
20260502224654 74 225 3.0 10.0 0.00 0.00 0.00 58 1012.7
20260502223806 74 224 2.0 10.0 0.00 0.00 0.00 58 1013.0
20260502223301 73 222 3.0 9.0 0.00 0.00 0.00 57 1012.8
20260502222802 73 245 3.0 9.0 0.00 0.00 0.00 59 1013.0
20260502222301 73 222 6.0 7.0 0.00 0.00 0.00 57 1013.1
20260502221802 73 270 3.0 7.0 0.00 0.00 0.00 59 1013.1
20260502221318 72 243 2.0 7.0 0.00 0.00 0.00 58 1013.2
20260502220801 73 269 5.0 7.0 0.00 0.00 0.00 57 1013.2
20260502220303 72 256 0.0 7.0 0.00 0.00 0.00 60 1013.3
20260502220129 72 254 2.0 7.0 0.00 0.00 0.00 61 1013.4
20260502215301 72 264 4.0 10.0 0.00 0.00 0.00 59 1013.4